Location: Kaarina
(60.4167°N, 22.4167°E)
Time: 13:19:35
(UTC+03:00)

Spot 2 Rocket - Pass Details

Date: 24 August 2019
Orbit: 758 x 772 km, 98.6° (Epoch: 21 October)

Event Time Altitude Azimuth Distance (km) Brightness Sun altitude
Exits shadow 22:10:47 - 171° (S) 3,081 6.2 -8.2°
Reaches altitude 10° 22:12:44 10° 175° (S) 2,308 5.6 -8.4°
Maximum altitude 22:17:46 63° 256° (WSW) 860 4.0 -8.8°
Drops below altitude 10° 22:22:51 10° 338° (NNW) 2,315 7.2 -9.3°
Sets 22:25:11 0° 342° (NNW) 3,243 8.0 -9.5°
